Location: Habighorst
(52.7089°N, 10.2278°E)
Time: 23:22:42
(UTC+00:00)

Okean 1-7 - Pass Details

Date: 13 January 2026
Orbit: 566 x 588 km, 82.5° (Epoch: 18 February)

Event Time Altitude Azimuth Distance (km) Brightness Sun altitude
Exits shadow 06:05:34 - 347° (NNW) 2,704 6.0 -11.4°
Reaches altitude 10° 06:07:34 10° 345° (NNW) 1,882 5.2 -11.2°
Maximum altitude 06:11:42 70° 262° (W) 611 2.8 -10.6°
Drops below altitude 10° 06:15:49 10° 179° (S) 1,875 5.8 -10.0°
Sets 06:17:59 0° 177° (S) 2,772 6.8 -9.7°
